Погода в Золотухе

Россия / Владимирская область     56°25′34″N   39°21′22″E
темп.,
°C
ветер,
м/с
пор.,
м/с
влажн.,
%
обл.,
%
осадки,
мм/ч
давл.,
гПа
погр.,
м
25 июля, вс
вс2500:00+10зсз22795 0.0 101810
03:00+9з22835 0.0 101910
06:00+12ююз226979 0.0 101960
09:00+14ююз2359100 0.0 1020139
12:00+18юз455018 0.0 1020675
15:00+20зюз3452100 0.0 1020736
18:00+20сз24546 0.0 1020490
21:00+17юз2254100 0.0 102112
26 июля, пн
пн2600:00+16зюз2255100 0.0 102225
03:00+15зюз3459100 0.0 102276
06:00+16з236246 0.0 102263
09:00+21з345097 0.0 1022481
12:00+20зюз345697 0.0 1023324
15:00+24з464011 0.0 10212163
18:00+23юз2555100 0.0 1021469
21:00+19з23598 0.0 102138
27 июля, вт
вт2700:00+17зюз346798 0.0 102180
03:00+15зсз33795 0.0 102231
06:00+16сз23745 0.0 102271
09:00+22сз22525 0.0 1021358
12:00+26зсз344019 0.0 10201922
15:00+27зсз343538 0.0 10192493
18:00+25с114923 0.0 1018229
21:00+20вюв015620 0.1 101820
28 июля, ср
ср2800:00+16вюв227523 0.1 101816
03:00+15ююв338525 0.1 101829
06:00+16зсз23810 0.0 101788
09:00+22юз12585 0.0 1016448
12:00+26юз344790 0.0 10141519
15:00+25юз3555100 0.0 1012161
18:00+19ссв3486100 1.7 1012103
21:00+16ююз3894100 3.1 1012274
29 июля, чт
чт2900:00+16ююв4997100 1.4 1009309
03:00+16юв4997100 1.9 1007314
06:00+16ююв3599100 0.4 1005327
09:00+17ююз2598100 0.9 1004324
12:00+18з4795100 0.9 1005565
15:00+18зсз489484 2.1 1005547
18:00+20зсз511855 1.1 1005869
21:00+18з339188 1.4 100542